User: anonymous   Login
Location: Unspecified
(0.0000°N, 0.0000°E)
Time: 09:10:39
(UTC+00:00)
Language:

Vanguard 2 Rocket - Orbit

View from above orbital plane
View from above orbital plane
View from above satellite
View from above satellite

Ground track
Ground track

The orbit data is extracted from the following two-line orbital elements,

1    12U 59001B   17086.41738228 +.00000184 +00000-0 +10801-3 0  9991
2    12 032.8994 152.0922 1667536 003.1950 357.7915 11.44141365387581
Epoch (UTC): 27 March 2017 10:01:01
Eccentricity: 0.1667536
inclination: 32.8994°
perigee height: 554 km
apogee height: 3328 km
right ascension of ascending node: 152.0922°
argument of perigee: 3.1950°
revolutions per day: 11.44141365
mean anomaly at epoch: 357.7915°
orbit number at epoch: 38758

The dashed part of the orbit path shows where the satellite is in the earth's shadow,  

DLR